SCP
0 0 0 0 0 0 -0 0 0 0 0 0 0 0 0 0 0 0 0 0 0 1 1 1 1 1 1 0 0 0 0 0
0 -0 0 0 0 0 0 0 0 0 0 0 0 0 0 0 0 0 0 0 0 1 1 1 1 1 1 0 0 0 0 0
0 0 0 0 0 -0 0 0 0 0 0 0 0 0 0 0 0 0 0 0 0 1 1 1 1 1 1 1 0 0 0 0
0 0 0 0 0 0 0 0 0 0 0 0 0 0 0 0 0 0 0 0 1 1 1 1 1 1 1 1 1 1 0 0
0 0 0 0 0 0 0 0 0 0 0 0 0 0 0 0 0 0 0 0 0 1 1 1 2 1 1 1 1 1 0 0
0 0 0 0 0 0 0 0 0 0 0 0 0 0 0 0 0 0 0 0 0 0 0 0 1 1 1 1 0 0 0 0
0 0 0 0 0 0 0 0 0 0 0 0 0 0 0 0 0 0 0 0 0 0 0 0 0 0 1 0 0 0 0 0
0 0 0 0 0 0 0 0 0 0 0 0 0 0 0 0 0 0 0 0 0 0 0 0 0 0 0 0 0 0 0 0
0 0 0 0 -0 0 0 0 0 0 0 0 0 0 0 0 0 0 0 0 0 0 0 0 0 0 0 0 0 0 0 0
0 0 0 0 0 0 0 0 0 0 0 0 0 0 0 0 0 0 0 0 0 0 0 0 0 0 0 0 0 0 0 0
0 0 0 0 0 0 0 0 0 0 0 0 0 0 0 0 0 0 0 0 0 0 0 0 0 0 0 0 0 0 0 0
0 0 0 0 0 0 0 0 0 0 0 0 0 -0 0 0 0 0 0 0 0 0 0 0 0 0 0 0 0 0 0 0
0 0 0 0 0 -0 -0 -0 0 0 0 0 -0 0 0 0 0 0 0 0 0 0 0 0 0 0 0 0 0 0 0 0
0 0 0 0 0 0 0 -0 0 0 0 0 0 0 0 0 0 0 0 0 0 0 0 0 0 0 0 0 0 0 0 0
0 0 0 0 -0 -0 -0 -0 -0 -0 0 0 -0 0 0 0 0 0 0 0 0 0 0 0 0 0 0 0 0 0 0 0
-0 0 0 0 -0 -0 -0 0 0 -0 -0 0 0 -0 0 0 0 0 0 0 0 0 0 0 0 0 0 0 0 0 0 0
-0 0 0 0 -0 0 0 -0 0 0 -0 0 0 0 0 0 0 0 0 0 0 0 0 0 0 0 0 0 0 0 0 0
-0 0 -0 0 0 0 0 -0 0 0 -0 -0 0 0 0 0 0 0 0 0 0 0 0 0 0 0 0 0 0 0 0 0
-0 0 -0 0 -0 0 0 -0 0 0 0 0 0 0 0 0 0 0 0 0 0 0 0 0 0 0 0 0 0 0 0 0
0 0 0 0 -0 0 0 0 0 -0 0 0 0 0 0 0 0 0 0 0 0 0 0 0 0 0 0 0 0 0 0 0
Wind_Speed_500mb
5 4 9 8 8 10 36 39 18 4 2 5 5 12 8 16 26 26 19 14 16 24 23 21 19 19 24 26 23 25 24 26
4 15 12 8 19 34 15 33 24 21 6 8 15 8 13 21 28 23 18 18 21 26 25 19 16 17 21 23 27 26 23 31
6 11 10 13 33 34 9 7 7 24 12 9 26 22 22 28 27 18 20 21 24 23 18 17 17 18 22 24 28 22 22 26
8 10 8 15 42 19 15 13 10 8 20 12 22 37 31 33 26 23 18 23 26 22 18 19 20 26 29 30 32 26 19 19
8 18 13 12 15 9 16 6 17 16 15 13 35 41 38 37 30 22 28 24 26 26 23 23 27 30 30 30 32 24 22 22
9 7 20 14 8 25 29 24 13 28 9 14 35 49 48 38 33 28 31 28 26 29 27 29 31 28 30 35 27 23 25 26
13 11 17 13 7 45 34 26 12 29 38 35 23 56 51 45 43 36 37 34 35 37 34 31 29 28 35 29 30 29 26 28
20 11 14 34 8 42 23 39 30 25 32 37 36 66 62 58 54 47 45 46 45 42 37 34 31 29 28 21 26 29 29 27
26 41 33 32 56 48 30 20 48 36 38 35 50 70 64 59 53 44 44 51 53 48 41 37 27 24 15 16 18 23 27 27
55 62 34 26 46 45 57 63 84 60 33 45 59 69 67 63 57 52 57 57 57 50 46 33 23 17 16 18 20 19 21 28
54 57 61 61 41 47 62 84 83 57 41 52 62 66 64 60 58 56 62 63 61 54 41 27 18 15 15 21 21 19 22 26
40 53 62 46 47 41 55 68 79 52 51 56 68 68 69 71 70 66 63 61 59 48 31 21 16 18 18 20 21 22 25 25
26 42 28 58 35 44 66 65 71 54 55 64 75 74 75 71 77 70 66 61 57 40 25 17 17 17 20 21 20 20 23 26
19 34 43 23 40 39 70 63 70 64 60 70 77 80 79 81 75 71 65 61 47 32 19 15 16 16 19 21 20 21 20 24
39 28 12 13 37 23 50 48 55 68 62 71 83 79 88 83 80 71 66 57 42 27 16 14 12 13 17 16 17 20 23 25
31 5 18 30 33 35 54 47 51 61 72 71 80 74 79 83 77 71 65 48 34 22 14 10 9 9 12 15 19 22 24 25
33 3 15 14 22 23 37 35 39 57 56 67 68 43 40 64 69 72 61 46 31 19 13 9 4 7 13 20 21 19 21 21
38 12 13 17 28 28 25 22 42 56 58 55 54 43 40 57 74 77 59 40 26 16 12 8 3 9 17 23 19 21 16 20
39 6 14 13 27 26 35 13 43 60 58 44 58 51 47 65 80 69 53 35 20 13 10 8 4 10 20 23 22 21 13 20
35 7 16 8 10 11 18 24 14 32 33 49 43 41 50 76 76 61 43 26 17 13 8 7 5 11 23 26 20 10 11 11
Wind_Direction_500mb
106 164 201 225 248 258 295 306 174 110 305 246 230 197 215 195 181 174 194 203 213 211 222 237 256 285 299 299 294 285 278 267
113 241 265 237 278 286 282 291 226 168 165 226 178 205 219 192 179 178 202 222 215 218 227 238 252 290 307 310 311 302 272 264
237 245 250 251 268 293 264 238 189 164 197 230 218 219 215 189 185 199 214 224 219 224 238 246 263 298 309 306 311 297 278 269
253 229 232 283 285 288 288 288 177 218 156 207 221 212 205 194 200 203 223 222 220 221 238 254 265 289 301 305 307 300 288 277
243 279 297 241 293 277 312 248 226 202 153 219 226 214 210 200 203 212 217 228 219 220 229 235 258 274 286 294 298 291 290 295
240 237 277 221 264 295 311 292 302 203 202 241 233 194 195 199 205 213 222 225 222 220 226 242 259 274 284 295 283 265 267 280
239 195 251 233 346 299 311 284 274 207 238 257 219 189 194 199 204 214 219 219 220 227 232 246 254 268 294 287 274 265 265 277
219 195 253 294 267 291 303 297 293 275 261 255 204 195 198 207 211 218 218 220 225 227 234 241 247 283 292 276 264 267 271 271
264 253 259 285 294 296 278 279 277 268 267 225 199 199 207 216 221 229 226 226 229 228 227 233 259 292 307 313 307 288 280 278
250 260 269 263 283 289 289 280 288 279 271 224 205 206 212 216 219 223 223 229 226 222 225 237 265 301 307 311 314 307 294 279
263 278 278 278 269 269 281 288 291 274 247 225 219 220 221 224 222 226 224 228 228 219 225 242 267 304 302 313 310 299 295 290
266 263 273 275 273 277 276 285 289 265 247 233 224 226 222 220 223 226 226 223 212 211 222 248 284 301 312 317 312 298 291 288
260 266 261 267 272 265 275 282 286 273 253 232 227 227 226 228 221 227 222 210 207 210 225 258 291 303 317 318 316 310 294 291
270 253 257 235 271 274 283 282 275 275 254 230 231 230 234 231 224 222 212 207 202 207 230 266 288 296 312 314 306 305 311 311
278 251 260 201 274 276 279 277 274 279 267 238 237 233 233 233 227 220 210 203 201 211 237 265 276 294 312 312 308 309 307 314
255 140 226 252 261 272 277 261 262 275 278 248 236 242 240 235 224 212 207 200 204 212 238 250 269 302 312 323 315 307 311 314
260 193 233 245 263 272 278 294 269 274 270 261 246 258 252 232 216 201 197 195 201 217 230 228 266 299 323 332 324 312 309 317
283 272 245 271 269 276 278 266 260 269 272 263 259 261 228 213 197 195 187 191 202 216 219 204 267 324 338 339 330 319 306 311
250 333 265 285 283 284 283 266 271 260 256 258 262 240 210 194 188 181 188 190 203 209 201 198 270 338 345 339 326 321 309 315
259 276 264 129 284 295 285 303 287 258 242 247 251 221 199 186 180 185 181 185 190 194 192 194 286 340 343 338 329 345 329 344
Wind_Speed_850mb
5 4 9 8 8 10 36 39 18 4 2 5 5 12 8 16 26 26 19 14 16 24 23 21 19 19 24 26 23 25 24 26
4 15 12 8 19 34 15 33 24 21 6 8 15 8 13 21 28 23 18 18 21 26 25 19 16 17 21 23 27 26 23 31
6 11 10 13 33 34 9 7 7 24 12 9 26 22 22 28 27 18 20 21 24 23 18 17 17 18 22 24 28 22 22 26
8 10 8 15 42 19 15 13 10 8 20 12 22 37 31 33 26 23 18 23 26 22 18 19 20 26 29 30 32 26 19 19
8 18 13 12 15 9 16 6 17 16 15 13 35 41 38 37 30 22 28 24 26 26 23 23 27 30 30 30 32 24 22 22
9 7 20 14 8 25 29 24 13 28 9 14 35 49 48 38 33 28 31 28 26 29 27 29 31 28 30 35 27 23 25 26
13 11 17 13 7 45 34 26 12 29 38 35 23 56 51 45 43 36 37 34 35 37 34 31 29 28 35 29 30 29 26 28
20 11 14 34 8 42 23 39 30 25 32 37 36 66 62 58 54 47 45 46 45 42 37 34 31 29 28 21 26 29 29 27
26 41 33 32 56 48 30 20 48 36 38 35 50 70 64 59 53 44 44 51 53 48 41 37 27 24 15 16 18 23 27 27
55 62 34 26 46 45 57 63 84 60 33 45 59 69 67 63 57 52 57 57 57 50 46 33 23 17 16 18 20 19 21 28
54 57 61 61 41 47 62 84 83 57 41 52 62 66 64 60 58 56 62 63 61 54 41 27 18 15 15 21 21 19 22 26
40 53 62 46 47 41 55 68 79 52 51 56 68 68 69 71 70 66 63 61 59 48 31 21 16 18 18 20 21 22 25 25
26 42 28 58 35 44 66 65 71 54 55 64 75 74 75 71 77 70 66 61 57 40 25 17 17 17 20 21 20 20 23 26
19 34 43 23 40 39 70 63 70 64 60 70 77 80 79 81 75 71 65 61 47 32 19 15 16 16 19 21 20 21 20 24
39 28 12 13 37 23 50 48 55 68 62 71 83 79 88 83 80 71 66 57 42 27 16 14 12 13 17 16 17 20 23 25
31 5 18 30 33 35 54 47 51 61 72 71 80 74 79 83 77 71 65 48 34 22 14 10 9 9 12 15 19 22 24 25
33 3 15 14 22 23 37 35 39 57 56 67 68 43 40 64 69 72 61 46 31 19 13 9 4 7 13 20 21 19 21 21
38 12 13 17 28 28 25 22 42 56 58 55 54 43 40 57 74 77 59 40 26 16 12 8 3 9 17 23 19 21 16 20
39 6 14 13 27 26 35 13 43 60 58 44 58 51 47 65 80 69 53 35 20 13 10 8 4 10 20 23 22 21 13 20
35 7 16 8 10 11 18 24 14 32 33 49 43 41 50 76 76 61 43 26 17 13 8 7 5 11 23 26 20 10 11 11
Wind_Direction_850mb
106 164 201 225 248 258 295 306 174 110 305 246 230 197 215 195 181 174 194 203 213 211 222 237 256 285 299 299 294 285 278 267
113 241 265 237 278 286 282 291 226 168 165 226 178 205 219 192 179 178 202 222 215 218 227 238 252 290 307 310 311 302 272 264
237 245 250 251 268 293 264 238 189 164 197 230 218 219 215 189 185 199 214 224 219 224 238 246 263 298 309 306 311 297 278 269
253 229 232 283 285 288 288 288 177 218 156 207 221 212 205 194 200 203 223 222 220 221 238 254 265 289 301 305 307 300 288 277
243 279 297 241 293 277 312 248 226 202 153 219 226 214 210 200 203 212 217 228 219 220 229 235 258 274 286 294 298 291 290 295
240 237 277 221 264 295 311 292 302 203 202 241 233 194 195 199 205 213 222 225 222 220 226 242 259 274 284 295 283 265 267 280
239 195 251 233 346 299 311 284 274 207 238 257 219 189 194 199 204 214 219 219 220 227 232 246 254 268 294 287 274 265 265 277
219 195 253 294 267 291 303 297 293 275 261 255 204 195 198 207 211 218 218 220 225 227 234 241 247 283 292 276 264 267 271 271
264 253 259 285 294 296 278 279 277 268 267 225 199 199 207 216 221 229 226 226 229 228 227 233 259 292 307 313 307 288 280 278
250 260 269 263 283 289 289 280 288 279 271 224 205 206 212 216 219 223 223 229 226 222 225 237 265 301 307 311 314 307 294 279
263 278 278 278 269 269 281 288 291 274 247 225 219 220 221 224 222 226 224 228 228 219 225 242 267 304 302 313 310 299 295 290
266 263 273 275 273 277 276 285 289 265 247 233 224 226 222 220 223 226 226 223 212 211 222 248 284 301 312 317 312 298 291 288
260 266 261 267 272 265 275 282 286 273 253 232 227 227 226 228 221 227 222 210 207 210 225 258 291 303 317 318 316 310 294 291
270 253 257 235 271 274 283 282 275 275 254 230 231 230 234 231 224 222 212 207 202 207 230 266 288 296 312 314 306 305 311 311
278 251 260 201 274 276 279 277 274 279 267 238 237 233 233 233 227 220 210 203 201 211 237 265 276 294 312 312 308 309 307 314
255 140 226 252 261 272 277 261 262 275 278 248 236 242 240 235 224 212 207 200 204 212 238 250 269 302 312 323 315 307 311 314
260 193 233 245 263 272 278 294 269 274 270 261 246 258 252 232 216 201 197 195 201 217 230 228 266 299 323 332 324 312 309 317
283 272 245 271 269 276 278 266 260 269 272 263 259 261 228 213 197 195 187 191 202 216 219 204 267 324 338 339 330 319 306 311
250 333 265 285 283 284 283 266 271 260 256 258 262 240 210 194 188 181 188 190 203 209 201 198 270 338 345 339 326 321 309 315
259 276 264 129 284 295 285 303 287 258 242 247 251 221 199 186 180 185 181 185 190 194 192 194 286 340 343 338 329 345 329 344